St. Augustine, FL

6:38 AM EDT on May 28, 2018 (GMT -0400)
Saint Augustine

Weather History for KSGJ - October, 2012

Change the Weather History Date:

Monday, October 1, 2012

  Actual Average Record
Temperature  
Mean Temperature 80 °F -  
Max Temperature 88 °F 80 °F 92 °F (1977)
Min Temperature 73 °F 69 °F 57 °F (2001)
Cooling Degree Days 15    
Growing Degree Days 30 (Base 50)    
Moisture  
Dew Point 75 °F    
Average Humidity 86    
Maximum Humidity 94    
Minimum Humidity 63    
Precipitation  
Precipitation 0.32 in - - ()
Sea Level Pressure  
Sea Level Pressure 29.78 in    
Wind  
Wind Speed 8 mph (South)    
Max Wind Speed 18 mph    
Max Gust Speed 26 mph    
Visibility 9 miles    
Events Rain , Thunderstorm    
Averages and records for this station are not official NWS values.
T = Trace of Precipitation, MM = Missing Value Source: NWS Daily Summary

Daily Weather History Graph

Daily Weather History Graph

Search for Another Location

Airport or City:

Astronomy

Oct. 01, 2012 Rise Set
Actual Time 7:19 AM EDT 7:10 PM EDT
Civil Twilight 6:55 AM EDT 7:34 PM EDT
Nautical Twilight 6:27 AM EDT 8:01 PM EDT
Astronomical Twilight 5:59 AM EDT 8:29 PM EDT
Moon 7:58 PM EDT (10/1) 8:36 AM EDT (10/1)
Length of Visible Light 12h 38m
Length of Day
11h 51m
Full, 98% of the Moon is Illuminated
Oct 1
Full
Oct 8
Last Quarter
Oct 15
New
Oct 21
First Quarter
Oct 29
Full

Hourly Weather History & Observations

Time (EDT) Temp. Heat Index Dew Point Humidity Pressure Visibility Wind Dir Wind Speed Gust Speed Precip Events Conditions
12:58 AM 75.0 °F - 72.0 °F 90% 29.83 in 10.0 mi South 3.5 mph - N/A   Clear
1:58 AM 73.9 °F - 72.0 °F 93% 29.81 in 10.0 mi South 4.6 mph - N/A   Clear
2:58 AM 73.9 °F - 71.1 °F 91% 29.79 in 10.0 mi SSW 6.9 mph - N/A   Clear
3:58 AM 73.0 °F - 71.1 °F 93% 29.79 in 10.0 mi South 6.9 mph - N/A   Clear
4:58 AM 73.0 °F - 71.1 °F 93% 29.78 in 10.0 mi SW 3.5 mph - N/A   Clear
5:58 AM 73.0 °F - 71.1 °F 93% 29.79 in 10.0 mi SW 3.5 mph - N/A   Clear
6:58 AM 73.0 °F - 71.1 °F 93% 29.79 in 10.0 mi South 5.8 mph - N/A   Clear
7:58 AM 73.9 °F - 72.0 °F 93% 29.80 in 10.0 mi South 5.8 mph - N/A   Clear
8:58 AM 78.1 °F - 73.0 °F 84% 29.81 in 10.0 mi South 9.2 mph - N/A   Clear
9:58 AM 81.0 °F 86.2 °F 73.9 °F 79% 29.82 in 10.0 mi South 9.2 mph - N/A   Clear
10:58 AM 86.0 °F 92.2 °F 72.0 °F 63% 29.81 in 10.0 mi South 9.2 mph - N/A   Clear
11:58 AM 87.1 °F 94.5 °F 73.0 °F 63% 29.81 in 10.0 mi SSE 8.1 mph - N/A   Scattered Clouds
12:58 PM 86.0 °F 95.1 °F 75.0 °F 70% 29.80 in 10.0 mi SE 12.7 mph 17.3 mph N/A   Mostly Cloudy
1:10 PM 84.2 °F 92.3 °F 75.2 °F 74% 29.80 in 10.0 mi SE 15.0 mph 23.0 mph N/A   Overcast
1:21 PM 86.0 °F 95.1 °F 75.2 °F 70% 29.79 in 10.0 mi SSE 13.8 mph - N/A   Mostly Cloudy
2:58 PM 86.0 °F 96.9 °F 77.0 °F 74% 29.75 in 10.0 mi SE 18.4 mph 26.5 mph N/A   Partly Cloudy
3:58 PM 82.9 °F 90.8 °F 75.9 °F 79% 29.74 in 10.0 mi SSE 15.0 mph - 0.00 in Rain Light Rain
4:45 PM 84.2 °F 94.1 °F 77.0 °F 79% 29.74 in 10.0 mi SSE 17.3 mph 21.9 mph 0.01 in Thunderstorm Mostly Cloudy
4:52 PM 84.2 °F 96.1 °F 78.8 °F 84% 29.74 in 10.0 mi South 10.4 mph 21.9 mph 0.01 in Rain , Thunderstorm Light Rain
4:58 PM 82.9 °F 92.8 °F 78.1 °F 85% 29.74 in 9.0 mi SE 16.1 mph - 0.02 in Rain , Thunderstorm Light Rain
5:03 PM 82.4 °F 92.4 °F 78.8 °F 89% 29.74 in 7.0 mi SSE 13.8 mph - 0.03 in Rain Rain
5:14 PM 80.6 °F 88.1 °F 78.8 °F 94% 29.74 in 7.0 mi SSE 16.1 mph - 0.06 in Rain Rain
5:24 PM 80.6 °F 87.1 °F 77.0 °F 89% 29.74 in 2.5 mi SSE 16.1 mph - 0.20 in Rain Heavy Rain
5:33 PM 80.6 °F 87.1 °F 77.0 °F 89% 29.75 in 4.0 mi SSE 11.5 mph - 0.23 in Rain Light Rain
5:58 PM 80.1 °F 85.8 °F 77.0 °F 90% 29.75 in 10.0 mi SSE 11.5 mph - 0.25 in   Scattered Clouds
6:23 PM 80.6 °F 87.1 °F 77.0 °F 89% 29.75 in 10.0 mi SSE 8.1 mph - N/A Thunderstorm Clear
6:41 PM 80.6 °F 86.2 °F 75.2 °F 84% 29.76 in 10.0 mi SW 8.1 mph - 0.01 in   Mostly Cloudy
6:58 PM 79.0 °F - 75.0 °F 88% 29.76 in 7.0 mi SW 5.8 mph - 0.02 in Rain Rain
7:28 PM 77.0 °F - 75.2 °F 94% 29.76 in 6.0 mi SE 4.6 mph - 0.03 in   Scattered Clouds
7:58 PM 78.1 °F - 75.0 °F 90% 29.76 in 10.0 mi Calm Calm - 0.03 in   Clear
8:58 PM 78.1 °F - 75.9 °F 93% 29.78 in 10.0 mi South 5.8 mph - N/A   Partly Cloudy
9:58 PM 78.1 °F - 75.9 °F 93% 29.79 in 10.0 mi SSW 5.8 mph - N/A   Clear
10:58 PM 77.0 °F - 75.0 °F 94% 29.81 in 10.0 mi South 6.9 mph - N/A   Clear
11:58 PM 77.0 °F - 73.9 °F 90% 29.79 in 10.0 mi South 8.1 mph - N/A   Clear